Voltar ao catálogo

STARLINK-37036

AtivoComunicaçõesVLEO
NORAD 68077·PAYLOAD·🇺🇸 United States

Lançado Mar 4, 2026 de Vandenberg Space Force Base

Loading…

Próximas Passagens (próximas 24 horas)

TLE

AtualizadoSource: CelesTrak SupGP

Época: Sep 15, 2026, 03:57 UTC

1 68077C 26042J   26258.16506944  .00068877  00000+0  20342-2 0  2586
2 68077  53.1592  12.8451 0001138  91.0478 354.0040 15.34368761    19

Acompanhe STARLINK-37036 em tempo real com AllMySat

Download on the App Store